Powrót do katalogu

STARLINK-32123

AktywnyŁącznośćVLEO
NORAD 60284·PAYLOAD·🇺🇸 United States

Wystrzelony Jul 28, 2024 z Cape Canaveral Space Force Station

Loading…

Następne Przeloty (najbliższe 24 godziny)

TLE

ŚwieżeSource: CelesTrak SupGP

Epoka: Sep 14, 2026, 21:35 UTC

1 60284C 24132G   26257.89979167  .00037152  00000+0  10976-2 0  2579
2 60284  53.1580 239.5313 0001454  92.9918  35.5188 15.34372688    10

Śledź STARLINK-32123 w czasie rzeczywistym z AllMySat

Download on the App Store